Tracking 21612 objects as of 20-Oct-2020
HD Live streaming from Space Station
objects crossing your sky now

SCOUT B-1 R/B

Track SCOUT B-1 R/B now!
10-day predictions


NORAD ID: 6180
Int'l Code: 1972-069B
Perigee: 656.3 km
Apogee: 711.3 km
Inclination: 90.0 °
Period: 98.3 minutes
Semi major axis: 7054 km
RCS: 0.7995 m2 (medium)
Launch date: September 2, 1972
Source: United States (US)
Launch site: AIR FORCE WESTERN TEST RANGE (AFWTR)

Note: This is a ROCKET BODY
aabbcc
Your satellite tracking list
Your tracking list is empty




NASA's NSSDC Master Catalog

Two Line Element Set (TLE):
1  6180U 72069B   20293.54786654 +.00000236 +00000-0 +40763-4 0  9995
2  6180 089.9662 216.9141 0038974 214.2441 145.6261 14.65130175545046
Source of the keplerian elements: AFSPC